OBJECT A, 51824

Orbit data source: Space-Track

You're viewing an Uncataloged Satellite

Recently launched and/or uncataloged satellites may have evolving metadata. Metadata may include but not limited to: Owner, Maufacturer, Bus, Motor, and Mission.

OBJECT A, 51824 is a satellite owned by Weina (CN) in SSO that was launched on Sun, 27 Feb 2022 UTC via a CHANG ZHENG 8 launch vehicle from the Wenchang Satellite Launch Center (WSC). Unknown objects in Earth's orbit typically refer to objects detected orbiting the Earth but have not yet been identified or cataloged. These objects could be anything from previously untracked satellites, spent rocket stages, debris from satellite collisions, or even natural meteoroids temporarily captured by Earth's gravity.

Loading next visibility...
Identifier
51824, 2022-019A
Orbit
SSO
Last TLE update
6 hours ago
Origin
Flag of CNWEINA (CN / PRC)
Manufacturer
Weina
Mission
Non-operational Commercial Radar Imaging
Bus & Motor
MN200, Unknown motor
Mass
350 kg wet, 350 kg dry
Launch date (UTC)
2022-02-27 (3 years ago)
Launch vehicle
CHANG ZHENG 8
Launch site
Wenchang Satellite Launch Center (WSC)
Object type
Unknown
Shape & HBR
Box + 3 Pan, 6 m
Radar Cross Section
3.533 m², Large (>1 m²)

Expand to show TLE details & history

TLE from 6 hours ago
0 OBJECT A
1 51824U 22019A   25182.48602575  .00030546  00000-0  48267-3 0  9997
2 51824  97.3882 263.9660 0007310 322.4650  37.6092 15.53408320185567
Epoch: 2025-07-01T11:39Z
TLE epoch observation values (Epoch: 2025-07-01T11:39:52.624Z)
Latitude
-0.00005°
Longitude
169.21595°
Altitude
405.991 km
Speed
7.669 km/s
True Right ascension
17h 35m 51s
True Declination
0° 00' 00"
Sunlit
Object was in full shadow at epoch
Visualization orbit readout
Latitude
44.39909°
Longitude
162.2356°
Altitude
412.923 km
Speed
7.668 km/s
Apparent Right ascension
17h 25m 05s
Apparent Declination
3° 52' 05"
Sunlit
Object is in daylight
Visualization observer readout
Local Sidereal Time
05:42:06
Azimuth
6.12° NNE
Elevation
-46.042°
Doppler factor
1
Orbital elements
Apogee altitude
408.662 km
Perigee altitude
398.747 km
Semi-major axis
6,781.841 km
Eccentricity
0.00073
Inclination
97.3882°
RAAN
263.966°
Arg. of periapsis
322.465°
True anomaly
Unknown
Mean anomaly
37.6092°
Eccentric anomaly
Unknown
Mean motion
3.88617 °/min
Orbital period
92.64 mins
BSTAR
0.00048267
Loading maneuver chart data...
Loading SW <> Apogee altitude chart data...
Loading historical data...
Loading historical data...
Loading historical data...
Loading historical data...
Loading historical data...
Loading historical data...
Loading historical data...

OBJECT A Visibility forecast

Observer location: undefined°, undefined°

Span
Click to sort rows by Start time (UTC) header in descending order
Start Az.
Max El. time (UTC)
Max El. Az.
Max El.
End time (UTC)
End Az.
5 mins2025-07-01 18:24:24.721Z7.427° NNE2025-07-01 18:26:24.721Z344.864° N41.269°2025-07-01 18:29:24.721Z198.558° SSW
|